Kosmos-2362

operational
NORAD ID: 25593 Int'l Des: 1998-077 Owner: VKSR/IACG Country: RU Constellation: GLONASS
MEOCIRCULAR

About Kosmos-2362

Description loading...

Live Position

Loading 3D Globe...

Upcoming Passes

Altitude History

Altitude vs Time

uPlot chart will show altitude changes over time

Two-Line Element Set

1 25593U 98077A 25349.33447259 -.00000068 00000-0 00000-0 0 9990
2 25593 64.2090 66.6070 0030615 54.0466 303.8405 2.13102759209736
Epoch: Dec 15, 2025 • Age: 80 hours

Current Status

Altitude 19057.3 km
Velocity 3.97 km/s
Sub-Earth Point 33.86°N, 115.94°E
Launch Date Dec 30, 1998
Age 26.9 years
Type other

Technical Details

Classification Payload
Mass 1300.00 kg
Dry Mass 1200.00 kg
Total Mass 1300.00 kg
Length 4.00 m
Diameter 1.50 m
Span 7.80 m
Shape Cyl + Ant + 2 Pan
Manufacturer POL
Bus Type Uragan
Phase Status In Orbit
Owner/State VKSR/IACG/RU

Large Constellations

Loading constellations...